Location: Brabourne
(51.1333°N, 1.0000°E)
Time: 11:49:49
(UTC+00:00)

Cosmos 1825 Rocket - Pass Details

Date: 26 October 2021
Orbit: 603 x 631 km, 82.5° (Epoch: 26 November)

Event Time Altitude Azimuth Distance (km) Brightness Sun altitude
Rises 18:39:26 0° 350° (N) 2,876 7.2 -19.2°
Reaches altitude 10° 18:41:40 10° 351° (N) 1,965 6.3 -19.5°
Maximum altitude 18:46:01 82° 79° (E) 617 3.4 -20.2°
Enters shadow 18:49:10 18° 167° (SSE) 1,481 5.3 -20.7°
